Torna al catalogo

OPS 4682 DEB

AttivoPO
NORAD 18270·DEBRIS·🇺🇸 United States

Lanciato Apr 3, 1965 da Vandenberg Space Force Base

Loading…

Prossimi Passaggi (prossime 24 ore)

TLE

AggiornatoSource: Space-Track

Epoca: Sep 13, 2026, 07:01 UTC

1 18270U 65027Z   26256.29287669  .00000538  00000-0  18334-2 0  9995
2 18270  90.2386   1.5245 0029426 222.7884 163.0564 12.97212842928014

Traccia OPS 4682 DEB in tempo reale con AllMySat

Download on the App Store